Погода в Дударевой

Россия / Тюменская область     57°07′00″N   65°28′02″E
темп.,
°C
ветер,
м/с
пор.,
м/с
влажн.,
%
обл.,
%
осадки,
мм/ч
давл.,
гПа
погр.,
м
20 сентября, пн
пн2023:00+3зсз61287100 0.3 10101064
02:00+2зсз51188100 0.1 10121013
05:00+2сз51193100 0.1 1015908
08:00+3сз51085100 0.1 10161114
11:00+4сз4991100 0.1 1019898
14:00+5ссз488599 0.2 10211011
17:00+5ссз4883100 0.5 1023839
20:00+4сз3889100 0.2 1024598
21 сентября, вт
вт2123:00+3ссз389188 0.2 1025601
02:00+2ссз3791100 0.1 1026538
05:00+1ссз269552 0.1 1027297
08:00+1ссз259054 0.0 1028333
11:00+4ссз3465100 0.0 1027943
14:00+8сз355198 0.0 10251227
17:00+8сз355188 0.0 10241185
20:00+4зюз226774 0.0 102321
22 сентября, ср
ср2223:00+3юз2371100 0.0 102262
02:00+2зсз247844 0.0 102184
05:00+1ссз2590100 0.0 1022131
08:00+2ссз26816 0.0 1022204
11:00+8с346358 0.0 1023908
14:00+8с3456100 0.0 10231451
17:00+8с245978 0.0 1024901
20:00+6ссз2474100 0.0 1025141
23 сентября, чт
чт2323:00+4сз2490100 0.0 102692
02:00+2ссз259768 0.0 1027128
05:00+4ссв149079 0.0 1028299
08:00+4ссв2481100 0.0 1030696
11:00+7св236185 0.1 10311237
14:00+9св224732 0.0 10311404
17:00+9в12475 0.0 10321261
20:00+3ю22728 0.0 103336
24 сентября, пт
пт2423:00+2ююз227847 0.0 103343
02:00+2юз2379100 0.0 103446
05:00+1ююз2381100 0.0 103451
08:00+3юз2577100 0.0 1034159
11:00+8юз2456100 0.0 1034576
14:00+11юз2346100 0.0 10331012
17:00+10ю2353100 0.0 1032140
20:00+6ю226711 0.0 103221